Date,TemperatureHighF,TemperatureAvgF,TemperatureLowF,DewpointHighF,DewpointAvgF,DewpointLowF,HumidityHigh,HumidityAvg,HumidityLow,PressureMaxIn,PressureMinIn,WindSpeedMaxMPH,WindSpeedAvgMPH,GustSpeedMaxMPH,PrecipitationSumIn
2012-1-1,58,44,38,53,38,28,98,79,61,30.24,30.00,21,2,21,0.21
2012-1-2,38,28,18,29,16,10,85,62,45,30.27,30.11,23,3,23,0.00
2012-1-3,25,18,15,15,11,7,87,72,58,30.49,30.25,20,2,25,0.01
2012-1-4,47,30,16,28,15,7,79,56,27,30.50,30.20,14,1,14,0.00
2012-1-5,56,43,35,32,26,14,79,53,20,30.22,30.12,19,2,19,0.00
2012-1-6,63,46,33,36,27,23,70,50,28,30.20,30.04,13,1,13,0.00
2012-1-7,55,49,42,52,44,29,96,84,52,30.12,30.00,12,0,12,0.13
2012-1-8,51,50,48,51,49,47,98,97,92,30.23,30.12,4,0,4,0.10
2012-1-9,56,52,49,55,52,49,99,97,88,30.18,30.05,16,0,16,0.55
2012-1-10,52,50,48,51,49,47,98,96,91,30.11,29.89,11,0,11,0.02
2012-1-11,58,50,44,53,48,43,99,93,75,29.89,29.44,23,2,23,0.49
2012-1-12,46,39,22,43,36,14,94,86,66,29.86,29.56,28,4,28,0.40
2012-1-13,29,22,18,20,16,12,88,77,65,30.26,29.85,24,2,24,0.03
2012-1-14,43,32,22,27,20,13,80,61,45,30.34,30.13,22,2,22,0.04
2012-1-15,46,36,27,27,23,14,81,61,28,30.54,30.17,20,2,22,0.00
2012-1-16,43,36,29,31,25,21,78,64,49,30.57,30.36,11,1,11,0.00
2012-1-17,55,48,40,52,43,30,95,83,62,30.36,29.94,24,3,24,0.80
2012-1-18,42,33,27,38,28,23,92,79,61,30.19,30.04,15,2,15,0.00
2012-1-19,42,33,25,29,25,22,93,75,53,30.26,30.09,10,0,10,0.00
2012-1-20,45,39,34,44,37,27,98,94,70,30.20,30.03,10,0,10,0.38
2012-1-21,58,50,43,56,49,43,99,96,79,30.10,29.85,30,1,30,0.89
2012-1-22,50,47,44,49,46,43,99,96,91,30.22,30.09,16,1,16,0.02
2012-1-23,55,50,46,52,48,46,99,92,80,30.10,29.94,18,2,18,0.69
2012-1-24,60,49,40,48,35,24,94,64,27,30.31,30.05,15,1,15,0.00
2012-1-25,60,48,36,44,35,28,82,62,43,30.36,30.14,7,0,7,0.00
2012-1-26,61,56,50,55,51,42,96,84,70,30.14,29.60,26,3,26,0.36
2012-1-27,59,45,36,54,40,32,94,82,63,30.12,29.57,33,3,33,0.29
2012-1-28,52,39,31,43,29,18,95,68,49,30.36,30.09,17,1,17,0.01
2012-1-29,49,36,26,25,16,10,68,45,24,30.47,30.33,20,1,20,0.00
2012-1-30,57,44,37,28,23,18,62,43,31,30.49,30.35,14,1,14,0.00
2012-1-31,60,47,35,33,25,20,68,46,23,30.47,30.30,13,1,13,0.00
2012-2-1,48,46,43,47,39,26,98,81,42,30.32,30.13,6,0,6,0.65
2012-2-2,61,52,43,50,42,32,100,73,38,30.35,30.10,15,1,15,0.07
2012-2-3,62,47,35,38,34,30,86,62,32,30.48,30.33,12,1,12,0.00
2012-2-4,48,44,40,48,40,30,99,89,53,30.35,30.08,9,0,9,0.78
2012-2-5,55,50,43,52,46,39,99,87,69,30.15,30.03,16,2,16,0.01
2012-2-6,55,45,37,44,39,33,96,81,58,30.24,30.12,14,1,14,0.00
2012-2-7,55,42,32,40,32,27,94,70,35,30.27,30.14,9,1,12,0.00
2012-2-8,46,40,35,35,31,28,81,71,60,30.29,30.16,15,2,21,0.00
2012-2-9,52,38,30,31,27,24,83,67,38,30.34,30.17,13,1,13,0.00
2012-2-10,47,37,30,32,29,25,91,74,43,30.22,29.98,14,1,14,0.00
2012-2-11,36,25,15,31,20,6,92,80,64,30.40,29.90,21,2,21,0.00
2012-2-12,33,22,12,17,10,4,75,62,45,30.50,30.38,18,2,18,0.03
2012-2-13,47,33,20,25,18,13,79,55,28,30.40,30.10,19,1,19,0.02
2012-2-14,39,35,32,38,33,23,98,93,52,30.20,30.07,9,0,15,0.16
2012-2-15,62,47,35,43,37,31,97,72,39,30.34,30.14,11,1,11,0.00
2012-2-16,54,48,44,52,44,36,98,88,59,30.20,30.07,13,1,13,0.31
2012-2-17,62,48,39,46,39,34,93,73,37,30.20,30.06,14,1,14,0.00
2012-2-18,59,49,40,45,39,33,93,67,51,30.14,29.90,10,1,10,0.07
2012-2-19,46,41,32,44,39,28,96,93,88,30.05,29.69,14,2,14,0.59
2012-2-20,58,40,29,36,30,26,96,71,32,30.31,30.03,15,1,15,0.01
2012-2-21,53,44,36,43,33,23,81,67,52,30.26,30.02,27,4,27,0.00
2012-2-22,58,51,43,50,42,31,92,71,54,30.04,29.59,27,4,27,0.28
2012-2-23,70,62,52,56,50,47,91,68,47,29.67,29.51,28,4,36,0.01
2012-2-24,64,53,34,58,42,24,84,69,37,30.07,29.52,33,5,33,0.05
2012-2-25,46,36,30,25,20,14,73,53,32,30.38,30.06,36,3,36,0.00
2012-2-26,58,41,27,25,20,15,70,46,23,30.52,30.33,11,1,11,0.00
2012-2-27,63,48,38,43,32,23,68,54,39,30.48,30.31,15,1,15,0.00
2012-2-28,71,54,39,48,39,31,79,60,37,30.44,30.19,16,1,16,0.00
2012-2-29,63,58,52,58,54,48,98,89,76,30.19,29.83,27,4,33,0.30
2012-3-1,70,60,52,56,41,29,88,53,24,29.94,29.81,18,2,18,0.03
2012-3-2,67,56,47,59,49,32,95,79,46,29.90,29.63,26,2,26,0.42
2012-3-3,59,46,41,55,34,21,94,67,34,29.88,29.59,19,2,19,0.59
2012-3-4,41,37,32,26,22,18,70,55,45,30.08,29.82,23,3,23,0.00
2012-3-5,44,39,32,30,21,15,65,50,37,30.53,29.92,29,5,29,0.00
2012-3-6,67,44,27,29,21,12,72,44,15,30.65,30.43,15,2,15,0.00
2012-3-7,59,50,41,46,36,24,79,61,46,30.59,30.37,16,2,16,0.00
2012-3-8,65,58,52,54,49,46,95,74,53,30.37,30.08,23,2,23,0.78
2012-3-9,54,48,41,51,36,25,97,68,38,30.40,30.08,15,2,15,0.42
2012-3-10,65,49,34,33,27,22,74,47,24,30.50,30.34,12,1,12,0.00
2012-3-11,67,51,37,42,32,22,68,48,28,30.54,30.35,11,1,11,0.00
2012-3-12,56,52,50,51,48,41,97,86,68,30.39,30.26,13,1,13,0.34
2012-3-13,74,59,52,62,52,47,99,80,43,30.27,30.12,13,0,13,0.38
2012-3-14,76,65,50,55,50,46,88,61,40,30.29,30.15,11,1,11,0.00
2012-3-15,77,63,54,60,51,47,88,67,42,30.33,30.15,16,1,16,0.01
2012-3-16,73,60,51,61,55,50,98,84,53,30.34,30.12,18,1,18,0.41
2012-3-17,72,60,53,60,54,51,96,82,56,30.30,30.15,8,0,8,0.05
2012-3-18,77,64,54,61,54,48,97,72,45,30.29,30.13,14,1,14,0.21
2012-3-19,80,67,56,59,54,48,92,64,38,30.21,30.05,15,1,15,0.00
2012-3-20,81,71,59,59,53,49,80,53,35,30.20,29.98,17,1,17,0.00
2012-3-21,78,70,58,58,52,42,89,55,38,30.24,30.06,21,3,21,0.00
2012-3-22,73,68,59,61,56,41,92,65,51,30.21,30.06,13,3,15,0.03
2012-3-23,69,66,60,62,59,50,97,79,71,30.11,29.91,16,1,16,0.11
2012-3-24,63,54,0,52,42,0,92,58,49,29.92,29.76,15,4,15,0.01
2012-3-25,64,52,0,50,42,0,93,58,57,29.97,29.78,16,1,16,0.00
2012-3-26,75,64,0,50,43,0,81,41,35,30.06,29.92,16,2,16,0.00
2012-3-27,76,60,0,50,38,0,87,34,35,30.24,30.03,18,2,18,0.00
2012-3-28,74,61,0,55,46,0,76,52,47,30.24,29.93,22,2,22,0.00
2012-3-29,77,64,0,56,49,0,73,51,43,30.01,29.83,15,2,16,0.00
2012-3-30,74,66,55,60,56,50,91,72,48,30.04,29.81,13,1,21,0.10
2012-3-31,73,64,58,58,56,52,92,75,53,29.87,29.73,15,1,16,0.01
2012-4-1,76,70,66,56,54,51,63,55,44,29.87,29.71,15,1,15,0.00
2012-4-2,82,74,65,62,57,54,83,58,45,29.87,29.70,17,2,19,0.00
2012-4-3,81,72,61,63,59,47,85,65,51,29.98,29.80,18,1,18,0.00
2012-4-4,68,68,68,59,59,59,71,71,71,29.93,29.84,2,2,2,0.00
2012-4-5,72,68,55,60,56,52,95,68,55,29.74,29.59,5,1,19,0.03
2012-4-6,67,58,50,53,43,35,97,60,37,30.10,29.70,13,1,14,0.04
2012-4-7,71,54,40,47,38,33,84,57,31,30.30,30.09,14,1,14,0.00
2012-4-8,72,59,47,50,42,36,74,54,38,30.22,30.07,20,2,20,0.00
2012-4-9,70,57,47,39,32,18,57,40,17,30.13,29.99,20,2,23,0.00
2012-4-10,63,55,47,40,34,27,56,44,36,30.04,29.93,21,3,21,0.00
2012-4-11,58,45,36,32,26,20,63,47,30,30.20,29.99,15,1,15,0.00
2012-4-12,63,46,31,34,27,20,70,50,25,30.32,30.12,14,1,14,0.00
2012-4-13,69,54,38,39,34,28,77,48,25,30.28,30.15,18,1,18,0.00
2012-4-14,74,59,47,51,42,34,67,53,39,30.33,30.12,15,1,15,0.00
2012-4-15,75,62,49,57,50,43,83,65,49,30.21,30.10,22,2,22,0.00
2012-4-16,76,67,62,60,57,54,83,70,54,30.17,30.05,24,2,24,0.00
2012-4-17,73,61,54,63,56,53,100,85,57,30.20,30.07,5,0,11,0.50
2012-4-18,61,55,53,59,54,52,99,98,90,30.11,30.03,11,0,11,1.10
2012-4-19,72,59,49,59,53,48,99,83,53,30.08,29.91,12,0,12,0.01
2012-4-20,66,58,50,56,53,49,97,83,60,29.97,29.83,10,0,10,0.00
2012-4-21,63,56,52,62,55,50,98,94,88,29.86,29.72,11,0,11,0.09
2012-4-22,54,47,39,50,42,31,93,83,70,29.81,29.66,17,2,17,0.00
2012-4-23,54,42,36,37,30,24,81,63,39,29.90,29.73,13,1,13,0.00
2012-4-24,56,46,39,44,36,26,96,68,47,29.94,29.81,20,2,21,0.09
2012-4-25,74,57,44,59,51,44,99,83,53,29.94,29.81,19,1,24,0.07
2012-4-26,65,62,55,61,58,54,99,86,73,29.93,29.79,24,2,24,1.53
2012-4-27,74,66,60,67,60,56,99,82,59,30.04,29.89,12,1,12,0.01
2012-4-28,78,68,57,65,58,52,98,74,42,30.10,29.97,14,1,17,0.00
2012-4-29,81,68,58,66,60,57,99,79,52,30.14,30.03,11,0,11,0.00
2012-4-30,82,70,60,65,58,46,97,68,34,30.18,30.03,20,1,20,0.00
2012-5-1,80,71,61,67,60,56,90,70,51,30.13,30.01,13,0,13,0.00
2012-5-2,84,72,64,69,63,56,92,73,49,30.12,30.00,11,0,11,0.00
2012-5-3,80,71,60,66,62,56,97,75,46,30.14,30.02,14,0,14,0.00
2012-5-4,74,66,60,66,62,58,98,88,72,30.12,29.96,14,0,14,0.15
2012-5-5,79,67,59,67,61,56,99,81,51,30.02,29.87,12,1,15,0.05
2012-5-6,80,68,59,65,61,57,96,80,56,29.99,29.87,4,0,8,0.02
2012-5-7,70,64,60,66,62,59,100,94,86,30.00,29.87,5,0,9,0.79
2012-5-8,75,68,61,66,62,60,99,82,64,29.92,29.81,8,1,12,0.05
2012-5-9,64,58,52,61,56,47,99,94,84,29.88,29.78,9,0,10,0.11
2012-5-10,67,56,48,51,46,40,88,69,45,30.03,29.86,13,1,13,0.00
2012-5-11,72,57,45,57,47,41,89,70,49,30.20,30.02,10,0,12,0.00
2012-5-12,66,60,53,60,54,47,88,81,75,30.33,30.18,7,0,7,0.00
2012-5-13,60,57,55,57,56,54,99,94,84,30.21,30.05,12,1,12,1.00
2012-5-14,72,62,57,68,60,56,99,93,76,30.04,29.90,13,0,13,0.07
2012-5-15,70,63,58,65,60,57,99,91,75,29.99,29.92,12,0,12,0.01
2012-5-16,75,63,56,64,57,54,100,84,55,30.02,29.91,11,0,11,0.01
2012-5-17,77,64,53,63,56,52,96,76,46,30.03,29.90,10,0,10,0.00
2012-5-18,75,63,55,63,58,54,98,84,61,30.08,29.99,9,0,9,0.00
2012-5-19,81,66,56,67,60,55,99,82,58,30.15,30.02,13,0,13,0.00
2012-5-20,79,66,56,66,58,53,99,77,48,30.16,30.02,10,0,10,0.00
2012-5-21,77,63,57,65,58,54,98,86,56,30.06,29.92,19,0,19,0.41
2012-5-22,69,60,57,65,59,56,99,95,79,29.94,29.82,10,0,12,0.05
2012-5-23,71,62,56,65,60,56,99,93,73,29.92,29.84,6,0,7,0.02
2012-5-24,79,67,59,63,58,51,100,76,41,30.01,29.90,12,0,12,0.00
2012-5-25,83,71,60,70,62,58,94,75,47,30.11,29.99,7,0,7,0.00
2012-5-26,85,73,62,71,64,60,94,77,53,30.17,30.05,6,0,6,0.00
2012-5-27,85,73,63,70,65,61,96,77,48,30.11,29.98,7,0,7,0.00
2012-5-28,82,73,63,68,64,61,94,74,53,30.04,29.90,10,0,10,0.00
2012-5-29,79,70,64,69,65,63,98,86,67,29.95,29.80,9,0,9,0.01
2012-5-30,83,70,61,65,58,47,100,70,30,29.87,29.78,10,0,11,0.00
2012-5-31,76,67,56,68,58,51,91,73,56,29.92,29.74,7,0,7,0.00
2012-6-1,72,62,52,63,59,47,98,89,65,29.90,29.70,14,1,14,0.90
2012-6-2,66,56,47,52,48,45,94,76,51,29.99,29.87,16,1,16,0.00
2012-6-3,76,62,49,62,54,46,96,74,48,30.04,29.85,13,0,13,0.00
2012-6-4,76,67,62,66,62,57,96,83,61,29.86,29.73,13,1,13,0.04
2012-6-5,73,64,57,63,57,52,98,81,56,29.84,29.72,10,0,10,0.25
2012-6-6,75,64,55,61,55,49,96,74,43,29.98,29.81,9,0,9,0.00
2012-6-7,77,65,56,63,57,54,95,78,52,30.05,29.97,10,0,10,0.00
2012-6-8,79,67,56,63,56,53,93,70,46,30.10,29.96,10,0,10,0.00
2012-6-9,76,68,62,67,61,56,91,79,65,30.10,29.97,4,0,4,0.00
2012-6-10,68,64,58,64,61,56,97,89,74,30.11,30.00,12,0,12,0.18
2012-6-11,73,67,64,69,65,63,98,94,84,30.06,29.96,11,0,11,0.04
2012-6-12,81,71,65,73,67,62,98,87,66,29.97,29.89,14,0,14,0.00
2012-6-13,84,70,61,70,64,60,98,82,57,29.98,29.90,6,0,10,0.00
2012-6-14,79,68,61,70,64,59,97,86,68,30.14,29.96,14,0,14,0.76
2012-6-15,80,68,60,71,64,60,99,86,62,30.22,30.06,7,0,7,0.02
2012-6-16,78,68,60,69,63,57,95,85,64,30.25,30.09,13,0,13,0.02
2012-6-17,78,69,63,69,63,61,95,83,62,30.15,29.98,9,0,9,0.00
2012-6-18,81,70,63,67,63,59,97,79,56,30.08,29.99,9,0,9,0.00
2012-6-19,84,72,61,69,63,59,95,75,52,30.18,30.07,9,0,9,0.00
2012-6-20,84,72,63,70,64,60,96,77,46,30.18,30.06,7,0,7,0.00
2012-6-21,84,71,64,72,66,63,97,87,57,30.11,29.93,7,0,7,0.48
2012-6-22,83,72,64,75,67,63,99,86,63,29.97,29.83,10,0,10,0.07
2012-6-23,84,73,64,73,67,63,99,83,55,29.98,29.89,3,0,7,0.00
2012-6-24,87,75,65,72,66,57,97,75,37,30.00,29.85,6,0,7,0.00
2012-6-25,87,75,65,73,66,62,96,75,51,29.88,29.70,12,0,12,0.00
2012-6-26,84,72,64,65,58,47,87,63,39,29.86,29.72,10,0,10,0.00
2012-6-27,82,69,55,60,53,47,85,59,38,30.01,29.85,12,0,12,0.00
2012-6-28,90,75,59,72,58,51,85,59,33,30.09,29.93,13,0,13,0.00
2012-6-29,94,81,69,73,63,55,79,56,36,29.97,29.82,6,0,6,0.00
2012-6-30,96,82,69,76,67,62,86,62,37,29.91,29.82,4,0,4,0.00
2012-7-1,96,82,67,78,69,64,91,66,40,29.97,29.86,11,0,23,0.12
2012-7-2,83,73,65,74,68,63,99,83,62,30.13,29.94,14,0,14,0.89
2012-7-3,87,73,66,74,66,60,94,80,56,30.06,29.93,12,0,12,0.03
2012-7-4,87,74,63,75,67,62,99,82,54,30.09,29.94,10,0,10,0.01
2012-7-5,90,76,67,77,68,61,97,80,52,30.07,29.89,19,0,19,0.01
2012-7-6,88,74,63,75,67,60,97,79,56,30.05,29.91,7,0,7,0.00
2012-7-7,90,78,67,75,69,65,96,76,47,30.04,29.93,6,0,6,0.00
2012-7-8,89,77,71,77,71,67,94,82,61,30.03,29.89,10,0,10,0.00
2012-7-9,84,75,68,74,69,65,97,82,65,29.96,29.88,15,0,15,0.00
2012-7-10,84,72,66,74,68,65,97,88,65,30.00,29.88,11,0,11,0.05
2012-7-11,71,68,67,69,67,65,98,95,89,30.08,29.97,6,0,6,0.12
2012-7-12,69,67,65,68,66,64,98,97,95,30.11,30.05,7,0,7,0.28
2012-7-13,76,70,66,73,68,65,99,95,87,30.14,30.05,9,0,12,0.18
2012-7-14,79,71,67,75,69,66,99,93,73,30.19,30.07,9,0,9,0.78
2012-7-15,82,72,66,75,69,66,99,91,69,30.21,30.08,7,0,7,0.00
2012-7-16,86,74,68,75,70,67,99,87,59,30.13,29.95,10,0,10,0.01
2012-7-17,87,74,66,76,69,65,98,86,59,30.04,29.93,7,0,7,0.00
2012-7-18,84,73,65,75,69,64,99,87,66,30.05,29.93,7,0,7,0.00
2012-7-19,86,75,66,75,69,65,99,83,60,30.06,29.92,11,0,12,0.00
2012-7-20,82,73,66,75,69,64,98,87,69,29.98,29.90,5,0,9,0.17
2012-7-21,84,73,67,74,69,66,98,88,62,30.07,29.93,18,0,19,0.11
2012-7-22,85,75,68,75,69,65,99,81,57,30.17,30.05,13,0,13,0.42
2012-7-23,83,75,66,76,70,65,98,85,69,30.22,30.06,6,0,6,0.00
2012-7-24,86,78,71,77,71,68,93,81,63,30.07,29.92,16,0,16,0.00
2012-7-25,86,78,71,76,71,68,94,81,65,29.99,29.88,8,0,8,0.00
2012-7-26,87,78,70,75,71,68,97,79,57,29.95,29.82,10,0,10,0.00
2012-7-27,86,78,73,73,70,67,87,77,60,29.94,29.84,12,0,12,0.00
2012-7-28,88,76,66,74,68,64,96,77,50,30.03,29.93,12,0,13,0.00
2012-7-29,84,73,63,69,64,60,95,74,50,30.03,29.93,10,0,10,0.00
2012-7-30,88,75,66,72,66,62,92,74,48,30.00,29.87,11,0,11,0.00
2012-7-31,80,71,65,74,68,63,97,90,72,30.01,29.84,9,0,9,0.67
2012-8-1,85,70,61,77,67,60,99,89,66,29.98,29.85,11,0,11,0.01
2012-8-2,88,74,63,76,67,59,97,78,54,29.95,29.82,9,0,9,0.00
2012-8-3,79,71,66,73,68,65,97,91,78,30.03,29.86,7,0,7,0.17
2012-8-4,80,71,66,75,69,66,98,95,77,30.14,30.00,6,0,6,0.35
2012-8-5,82,72,67,76,69,66,99,93,74,30.20,30.08,9,0,9,1.19
2012-8-6,84,71,66,74,69,66,100,94,66,30.15,30.01,5,0,5,0.18
2012-8-7,79,72,68,74,70,67,99,94,79,30.03,29.92,5,0,5,0.00
2012-8-8,85,75,68,77,70,66,99,86,62,30.01,29.91,11,0,11,0.00
2012-8-9,81,69,65,73,67,64,99,93,73,29.99,29.82,17,0,17,0.21
2012-8-10,79,68,64,73,67,63,99,94,73,29.88,29.78,11,0,11,0.41
2012-8-11,78,68,62,70,63,55,98,86,65,29.97,29.83,11,0,11,0.03
2012-8-12,80,66,55,67,59,54,97,80,55,30.07,29.96,11,0,11,0.00
2012-8-13,78,66,58,68,60,53,98,84,64,30.07,29.98,3,0,7,0.01
2012-8-14,79,67,58,70,63,55,98,85,69,30.01,29.87,7,0,7,0.00
2012-8-15,79,69,63,70,64,59,99,84,58,30.00,29.89,17,0,17,0.00
2012-8-16,81,70,58,68,61,56,98,74,44,30.09,29.94,12,0,12,0.01
2012-8-17,80,69,61,68,63,59,96,83,59,30.02,29.88,10,0,10,0.00
2012-8-18,79,70,64,69,64,61,96,84,67,29.92,29.81,8,0,8,0.00
2012-8-19,73,66,61,68,63,58,98,89,75,29.91,29.82,5,0,5,0.52
2012-8-20,77,66,58,64,57,53,95,75,48,29.98,29.87,10,0,10,0.00
2012-8-21,78,66,54,64,56,52,96,74,45,30.08,29.97,12,0,12,0.00
2012-8-22,81,67,56,64,58,54,94,73,43,30.15,30.04,7,0,7,0.00
2012-8-23,82,68,60,69,62,57,97,81,55,30.16,30.05,9,0,9,0.09
2012-8-24,80,68,61,70,63,58,99,87,49,30.19,30.03,7,0,7,0.03
2012-8-25,80,67,60,70,63,59,98,89,60,30.19,30.04,5,0,5,0.07
2012-8-26,82,70,61,72,64,60,99,85,54,30.21,30.05,5,0,5,0.01
2012-8-27,84,72,63,71,65,61,98,79,48,30.15,29.97,6,0,6,0.00
2012-8-28,82,70,64,72,66,62,98,90,68,30.04,29.92,6,0,6,0.08
2012-8-29,82,72,67,74,69,67,99,91,70,30.00,29.88,6,0,7,0.01
2012-8-30,79,72,68,73,69,66,99,92,76,30.14,29.96,6,0,6,0.00
2012-8-31,84,74,68,73,69,67,99,86,64,30.23,30.11,10,0,10,0.00
2012-9-1,86,74,66,74,69,66,99,84,62,30.19,30.01,10,0,10,0.00
2012-9-2,83,72,67,73,69,66,99,90,64,30.06,29.89,16,0,16,0.40
2012-9-3,77,70,66,72,68,66,99,94,78,29.97,29.87,13,0,16,0.23
2012-9-4,74,70,67,72,69,67,99,97,89,29.92,29.87,5,0,5,0.07
2012-9-5,83,73,68,74,69,67,99,89,65,29.93,29.82,5,0,12,0.00
2012-9-6,84,74,68,73,68,64,98,84,56,29.95,29.84,13,0,13,0.00
2012-9-7,85,72,62,73,66,61,99,83,50,30.02,29.82,9,0,9,0.00
2012-9-8,76,68,57,70,65,55,97,91,73,29.91,29.75,10,0,10,0.19
2012-9-9,74,60,50,61,54,49,98,81,52,30.07,29.90,14,0,14,0.01
2012-9-10,75,62,50,60,54,49,98,78,49,30.19,30.04,12,0,12,0.00
2012-9-11,74,63,54,64,57,52,96,81,58,30.28,30.14,9,0,9,0.00
2012-9-12,77,67,58,63,59,57,96,78,53,30.33,30.21,10,0,10,0.00
2012-9-13,75,65,56,61,57,51,97,77,45,30.34,30.21,7,0,7,0.00
2012-9-14,74,66,56,64,59,54,96,80,62,30.29,30.18,10,0,10,0.00
2012-9-15,80,65,55,66,59,54,98,82,54,30.26,30.09,12,0,12,0.00
2012-9-16,75,66,61,67,62,59,97,87,71,30.12,30.01,6,0,6,0.00
2012-9-17,73,65,62,67,63,61,99,93,70,30.06,29.75,13,0,13,0.31
2012-9-18,68,64,55,65,62,54,99,95,86,29.96,29.65,22,1,22,1.54
2012-9-19,71,58,49,61,54,48,99,87,65,30.11,29.95,8,0,8,0.01
2012-9-20,74,62,55,64,57,54,99,84,54,30.16,30.01,12,0,12,0.01
2012-9-21,76,63,55,65,58,54,98,83,51,30.12,29.97,11,0,11,0.00
2012-9-22,78,66,56,66,58,46,95,77,56,30.08,29.92,16,1,16,0.00
2012-9-23,70,58,49,54,42,30,90,58,28,30.20,30.05,14,1,14,0.00
2012-9-24,71,54,39,52,43,37,93,69,44,30.30,30.14,10,0,10,0.00
2012-9-25,74,59,46,62,52,45,96,80,56,30.29,30.16,8,0,8,0.00
2012-9-26,79,65,55,66,58,54,97,81,48,30.24,30.12,6,0,6,0.00
2012-9-27,77,64,56,65,60,55,98,86,62,30.25,30.11,7,0,7,0.01
2012-9-28,74,67,57,68,62,56,98,86,73,30.16,30.00,5,0,5,0.00
2012-9-29,72,64,58,68,61,56,99,92,74,30.02,29.87,11,0,11,0.04
2012-9-30,70,60,54,62,57,53,98,89,58,29.93,29.81,4,0,4,0.00
2012-10-1,64,61,59,64,60,58,99,98,93,29.83,29.65,14,1,14,1.19
2012-10-2,74,66,62,66,61,57,100,86,63,29.94,29.67,16,0,16,0.53
2012-10-3,76,64,57,62,57,43,96,81,32,30.19,29.93,12,0,12,0.00
2012-10-4,74,62,55,61,55,51,99,81,48,30.30,30.17,13,0,13,0.00
2012-10-5,74,60,47,60,53,46,99,81,56,30.27,30.04,9,0,9,0.01
2012-10-6,68,58,51,63,56,50,98,92,79,30.07,29.94,12,0,12,0.00
2012-10-7,55,49,43,55,48,42,100,95,82,30.15,29.97,14,0,14,0.26
2012-10-8,49,47,44,49,46,42,99,98,96,30.22,30.11,5,0,5,0.14
2012-10-9,62,50,45,53,47,44,99,90,68,30.19,30.06,10,0,10,0.00
2012-10-10,57,51,45,52,48,43,99,91,81,30.22,30.09,10,0,10,0.01
2012-10-11,69,52,42,53,45,39,98,78,41,30.34,30.21,6,0,6,0.01
2012-10-12,71,58,53,60,54,47,96,84,66,30.29,30.19,13,0,13,0.00
2012-10-13,68,59,53,56,53,48,100,81,59,30.37,30.24,10,0,10,0.00
2012-10-14,67,58,51,60,54,47,91,85,75,30.28,29.98,12,0,12,0.00
2012-10-15,67,59,49,60,53,43,97,81,55,29.98,29.85,19,1,19,0.93
2012-10-16,70,54,44,49,42,36,93,67,33,30.04,29.90,14,1,14,0.00
2012-10-17,71,55,43,49,44,40,91,68,37,30.02,29.82,11,0,11,0.00
2012-10-18,65,58,52,58,51,41,97,80,61,29.84,29.75,18,1,18,0.08
2012-10-19,64,55,47,44,36,31,79,51,32,29.83,29.71,27,2,27,0.00
2012-10-20,64,52,47,47,42,38,85,67,48,30.01,29.77,17,1,17,0.00
2012-10-21,72,54,40,52,43,39,96,71,38,30.21,30.01,14,0,14,0.00
2012-10-22,78,60,46,54,48,42,87,67,42,30.28,30.11,7,0,7,0.00
2012-10-23,77,62,51,57,52,48,92,70,42,30.23,30.08,9,0,9,0.00
2012-10-24,80,63,50,56,50,46,94,67,31,30.24,30.05,6,0,6,0.00
2012-10-25,80,63,50,57,51,46,88,66,43,30.16,30.01,10,0,10,0.00
2012-10-26,80,67,55,60,56,52,92,69,41,30.09,29.90,9,0,9,0.00
2012-10-27,65,57,47,57,52,44,95,84,70,29.91,29.77,15,1,15,0.00
2012-10-28,48,44,38,45,42,36,97,93,88,29.94,29.81,13,0,13,0.40
2012-10-29,38,36,34,37,34,31,96,93,88,29.94,29.78,15,0,15,0.19
2012-10-30,36,34,32,34,31,29,96,90,81,29.86,29.66,27,2,27,0.14
2012-10-31,53,41,34,37,29,22,89,65,35,29.92,29.80,20,2,20,0.01
2012-11-1,53,42,32,32,25,20,81,53,30,30.02,29.90,21,2,21,0.00
2012-11-2,64,53,44,46,36,23,62,54,43,30.03,29.89,22,2,22,0.00
2012-11-3,70,56,41,56,41,28,72,59,45,30.17,29.96,17,1,17,0.00
2012-11-4,64,56,40,54,48,36,87,74,63,30.07,29.91,16,1,16,0.00
2012-11-5,60,46,36,40,32,25,90,62,29,30.14,29.99,12,0,12,0.00
2012-11-6,45,41,38,40,38,32,98,87,61,30.07,29.95,11,0,11,0.24
2012-11-7,45,41,39,40,38,36,96,90,80,30.09,29.90,14,0,14,0.12
2012-11-8,59,44,34,40,34,30,90,71,38,30.22,30.08,16,1,16,0.00
2012-11-9,66,53,33,41,35,30,90,52,30,30.37,30.21,7,0,7,0.00
2012-11-10,71,54,41,41,35,31,72,51,29,30.41,30.25,7,0,7,0.00
2012-11-11,68,55,44,50,42,34,75,61,41,30.45,30.27,18,2,19,0.00
2012-11-12,64,56,41,55,50,38,95,79,66,30.30,30.12,22,3,22,0.37
2012-11-13,54,40,30,41,32,28,94,73,44,30.45,30.28,16,1,16,0.01
2012-11-14,52,41,30,35,31,26,88,69,45,30.49,30.30,6,0,6,0.00
2012-11-15,61,47,40,42,37,34,84,68,47,30.32,30.19,12,1,12,0.00
2012-11-16,60,46,33,42,34,28,93,64,41,30.39,30.25,10,0,10,0.00
2012-11-17,64,48,35,34,29,22,78,51,22,30.50,30.33,9,0,9,0.00
2012-11-18,64,48,37,38,29,20,72,48,32,30.49,30.31,7,0,7,0.00
2012-11-19,64,50,39,45,39,35,91,69,44,30.38,30.20,13,0,13,0.00
2012-11-20,64,52,43,43,39,37,84,64,40,30.22,30.07,15,1,15,0.00
2012-11-21,66,53,42,45,41,37,84,65,43,30.23,30.09,14,0,14,0.00
2012-11-22,68,52,40,45,40,36,89,65,37,30.30,30.14,10,0,10,0.00
2012-11-23,63,48,38,48,40,30,89,75,53,30.20,30.02,15,1,15,0.00
2012-11-24,42,34,29,31,24,18,84,66,45,30.23,30.07,21,3,21,0.00
2012-11-25,57,39,26,28,20,13,79,49,23,30.28,30.08,7,0,7,0.00
2012-11-26,65,48,35,43,27,17,92,44,27,30.27,30.13,10,0,10,0.07
2012-11-27,46,43,39,45,42,36,97,94,88,30.28,30.12,12,1,12,0.24
2012-11-28,54,41,33,38,30,20,95,69,30,30.44,30.26,14,1,14,0.00
2012-11-29,58,42,30,36,31,26,86,66,42,30.52,30.34,6,0,6,0.00
2012-11-30,55,44,32,42,36,29,91,75,60,30.46,30.31,16,1,17,0.00
2012-12-1,59,48,38,46,41,36,94,79,60,30.46,30.32,6,0,6,0.00
2012-12-2,65,54,46,51,46,42,93,76,56,30.39,30.25,12,0,12,0.00
2012-12-3,66,56,45,52,47,43,93,74,56,30.36,30.21,10,0,10,0.00
2012-12-4,66,57,48,52,48,45,89,74,58,30.33,30.17,11,1,11,0.00
2012-12-5,60,55,47,55,51,41,96,88,74,30.20,30.10,16,0,16,0.07
2012-12-6,50,48,47,46,43,41,92,82,75,30.25,30.14,7,0,7,0.00
2012-12-7,60,52,46,52,47,42,91,83,70,30.14,29.97,5,0,5,0.00
2012-12-8,65,58,54,54,52,50,91,81,65,30.02,29.94,21,2,21,0.00
2012-12-9,62,56,53,58,53,51,99,89,74,30.08,29.93,14,0,14,0.05
2012-12-10,58,54,41,56,51,39,100,92,85,29.94,29.67,26,2,26,0.93
2012-12-11,42,35,31,39,32,29,94,90,80,30.23,29.84,14,1,14,0.00
2012-12-12,46,37,32,39,34,31,97,90,67,30.34,30.23,5,0,5,0.00
2012-12-13,54,40,30,43,36,28,98,85,64,30.45,30.30,5,0,5,0.01
2012-12-14,57,42,31,42,35,28,96,76,49,30.45,30.25,4,0,4,0.00
2012-12-15,54,46,38,44,37,32,84,70,51,30.27,30.05,7,0,7,0.01
2012-12-16,50,48,45,49,47,43,100,96,82,30.09,29.88,15,0,15,1.83
2012-12-17,53,49,47,52,48,45,99,96,86,29.90,29.67,16,1,16,0.15
2012-12-18,50,44,39,47,34,24,96,69,37,30.03,29.69,19,2,19,0.17
2012-12-19,62,50,41,45,36,26,78,61,50,30.13,29.97,5,0,5,0.00
2012-12-20,48,44,33,47,39,25,98,85,71,30.08,29.62,26,3,26,1.27
2012-12-21,33,30,26,26,22,16,83,72,63,30.23,29.80,30,5,30,0.00
2012-12-22,47,36,24,20,11,1,72,39,19,30.33,30.21,19,2,19,0.00
2012-12-23,48,37,27,40,25,10,94,64,39,30.28,30.10,9,0,9,0.05
2012-12-24,46,41,38,45,40,36,99,97,90,30.11,29.89,15,0,15,1.11
2012-12-25,46,44,42,45,43,41,99,98,92,30.08,29.84,16,1,16,0.22
2012-12-26,54,40,28,48,37,26,98,89,74,29.97,29.42,29,5,29,0.86
2012-12-27,39,30,27,32,27,26,95,89,75,30.18,29.97,19,2,19,0.01
2012-12-28,42,35,26,36,31,25,97,87,73,30.21,29.92,12,0,12,0.28
2012-12-29,38,32,27,37,30,22,97,91,81,30.25,29.81,18,2,18,0.14
2012-12-30,44,31,22,29,23,19,87,73,42,30.51,30.24,15,1,15,0.02
2012-12-31,47,37,28,34,25,16,88,64,30,30.47,30.15,10,0,10,0.00
2013-1-1,46,42,37,44,39,23,98,89,47,30.16,30.00,16,0,16,0.74